This is the latest recevied weather packets stored in our database for station/object R2AKT-13. If no packets are shown the sender has not sent any weather packets the latest 10 day(s).
| Time | Temp. | Humidity | Pressure | Rain* | Wind** | Luminosity | Snow |
|---|---|---|---|---|---|---|---|
| 1777942303 | 16.11° C | 49% | 982.8 hPa | - | 1.34 m/s, 187° | - | - |
| 1777941739 | 16.11° C | 49% | 982.9 hPa | - | 1.34 m/s, 199° | - | - |
| 1777941174 | 16.11° C | 48% | 982.9 hPa | - | 0.89 m/s, 195° | - | - |
| 1777940664 | 16.11° C | 48% | 982.9 hPa | - | 2.24 m/s, 193° | - | - |
| 1777940074 | 16.11° C | 48% | 983 hPa | - | 0.89 m/s, 181° | - | - |
| 1777939589 | 16.67° C | 48% | 983 hPa | - | 1.34 m/s, 209° | - | - |
| 1777939034 | 16.67° C | 48% | 983.1 hPa | - | 0.89 m/s, 223° | - | - |
| 1777938434 | 16.67° C | 48% | 983.2 hPa | - | 0.89 m/s, 199° | - | - |
| 1777937844 | 16.67° C | 48% | 983.2 hPa | - | 0.89 m/s, 225° | - | - |
| 1777937359 | 16.67° C | 48% | 983.3 hPa | - | 1.79 m/s, 197° | - | - |
| 1777936794 | 16.67° C | 48% | 983.3 hPa | - | 1.34 m/s, 190° | - | - |
| 1777936289 | 16.67° C | 48% | 983.3 hPa | - | 0.89 m/s, 190° | - | - |
| 1777935799 | 16.67° C | 49% | 983.4 hPa | - | 1.79 m/s, 184° | - | - |
| 1777935282 | 17.22° C | 48% | 983.4 hPa | - | 1.79 m/s, 206° | - | - |
| 1777934794 | 17.22° C | 48% | 983.4 hPa | - | 0.89 m/s, 199° | - | - |
| 1777934194 | 17.22° C | 48% | 983.5 hPa | - | 1.79 m/s, 203° | - | - |
| 1777933699 | 17.22° C | 48% | 983.5 hPa | - | 1.34 m/s, 200° | - | - |
| 1777933189 | 17.22° C | 48% | 983.6 hPa | - | 1.34 m/s, 216° | - | - |
| 1777932684 | 17.22° C | 48% | 983.5 hPa | - | 1.79 m/s, 200° | - | - |
| 1777932159 | 17.78° C | 48% | 983.5 hPa | - | 2.24 m/s, 188° | - | - |
| 1777931589 | 17.78° C | 47% | 983.6 hPa | - | 1.79 m/s, 180° | - | - |
| 1777931009 | 17.78° C | 47% | 983.5 hPa | - | 3.13 m/s, 185° | - | - |
| 1777930439 | 17.78° C | 47% | 983.7 hPa | - | 2.24 m/s, 182° | - | - |
| 1777929939 | 17.78° C | 47% | 983.7 hPa | - | 1.79 m/s, 197° | - | - |
| 1777929449 | 17.78° C | 47% | 983.8 hPa | - | 2.24 m/s, 187° | - | - |
* Rain since midnight (hover to see other rain measurements)
** Current wind speed in m/s (hover to see current wind gust speed)